Location: Akhmadzhi
(42.0553°N, 44.4782°E)
Time: 03:50:56
(UTC+00:00)

Daily predictions for brighter satellites

Satellite Brightness Start Highest point End
(mag) Time Altitude Azimuth Time Altitude Azimuth Time Altitude Azimuth
Cosmos 1943 Rocket 2.6 00:00:31 10° NNW 00:06:12 66° ENE 00:11:49 10° SSE
Cosmos 2369 Rocket 4.4 00:02:43 10° N 00:07:30 28° NE 00:12:15 10° ESE
Cosmos 2154 Rocket 4.0 00:03:22 10° N 00:09:46 86° W 00:16:05 10° S
ERBS 1.9 00:10:01 31° SW 00:11:21 89° NNW 00:14:25 10° NE
USA 229 DEB 4.2 00:06:16 10° NW 00:13:23 48° WSW 00:20:51 10° S
USA 229 4.2 00:06:21 10° NW 00:13:28 48° WSW 00:20:57 10° S
MOS 1-B Rocket 4.0 00:09:57 10° SSE 00:15:42 79° ENE 00:21:20 10° NNW
ARIANE 5 R/B 3.6 00:15:06 10° NNE 00:19:57 43° E 00:24:42 10° S
CBERS-1 4.0 00:15:06 10° NNE 00:20:14 81° WNW 00:24:59 12° SSW
IRS-1D 4.0 00:17:35 10° N 00:22:45 50° WNW 00:26:58 15° SW
MSX 4.4 00:18:52 10° N 00:24:15 43° WNW 00:28:43 15° SW
Helios 1A 4.4 00:26:18 17° WSW 00:27:48 20° W 00:30:55 10° NW
Cosmos 1536 Rocket 3.8 00:24:26 15° SSW 00:27:56 52° W 00:32:16 10° N
OE (NEXTSAT) 4.1 00:26:13 10° WNW 00:29:32 80° SSW 00:32:51 10° ESE
Lacrosse 5 rocket 2.4 00:28:43 11° SSW 00:32:03 35° SE 00:35:48 10° ENE
ALOS 2.5 00:29:13 10° NNE 00:33:53 72° ESE 00:38:31 10° S
Resurs 1-4 Rocket 4.2 00:34:32 10° NW 00:35:49 11° WNW 00:37:05 10° WNW
USA 306 3.7 00:37:53 11° WSW 00:41:41 41° NNW 00:45:40 10° NE
USA 307 3.5 00:37:58 12° WSW 00:41:42 46° NNW 00:45:46 10° NE
CZ-4C R/B 4.1 00:40:37 10° WNW 00:46:21 22° WSW 00:52:31 10° SSW
Cosmos 1271 Rocket 2.9 00:42:49 10° NNW 00:46:29 50° W 00:50:11 10° S
Helios 1B rocket 3.0 00:45:29 10° N 00:49:18 40° WNW 00:53:05 10° SW
Meteor 1-21 Rocket 4.2 00:45:07 10° SSW 00:50:50 80° W 00:56:29 10° N
Meteor 1-29 2.9 00:47:35 10° NNE 00:50:51 79° ESE 00:54:05 10° S
SeaSat 1 2.5 00:45:54 10° NNE 00:50:52 83° WNW 00:55:47 10° SSW
Cosmos 2228 3.2 00:48:44 10° NNW 00:53:02 56° W 00:57:17 10° S
Cosmos 2218 Rocket 4.4 00:49:06 10° N 00:55:17 70° E 01:01:32 10° SSE
CZ-2C R/B 2.5 00:50:24 10° N 00:55:34 74° WNW 01:00:37 10° SSW
Cosmos 1606 Rocket 3.5 00:51:21 10° N 00:55:49 82° W 01:00:11 10° S
Cosmos 1943 3.9 00:56:00 10° S 01:01:33 57° ESE 01:07:08 10° NNE
IRS-P3 4.2 00:57:13 10° N 01:02:33 71° WNW 01:07:51 10° SSW
Cosmos 2237 Rocket 4.2 00:59:13 10° W 01:02:37 16° NW 01:06:01 10° N
ADEOS II 4.2 01:02:42 10° NW 01:04:21 11° WNW 01:06:01 10° WNW
Cosmos 2181 Rocket 4.1 00:58:27 10° S 01:04:45 90° WNW 01:11:00 10° N
